Location: Unspecified
(0.0000°N, 0.0000°E)
Time: 21:45:35
(UTC+00:00)

BlueWalker 3 - Pass Details

Date: 21 March 2023
Orbit: 497 x 514 km, 53.2° (Epoch: 29 March)

Event Time Altitude Azimuth Distance (km) Brightness Sun altitude
Rises 18:56:50 0° 198° (SSW) 2,622 5.8 -12.4°
Reaches altitude 10° 18:59:13 10° 187° (S) 1,733 4.8 -13.0°
Maximum altitude 19:02:43 31° 124° (SE) 912 2.8 -13.9°
Enters shadow 19:04:02 25° 88° (E) 1,064 2.9 -14.2°
